Key West International Airport
KEYW : now visible

Airfield :











YOU CAN JOIN US ON...

 
LOGIN :

Register | Disclaimer

   EN    FR    IT 

 









Legend :    VFR   Marginal VFR   IFR   Intensive IFR   Very Intensive IFR
Visi :
Ceiling :
>= 8 km
>= 3000ft
5 to 8 km
1000 to 3000 ft
1500m to 5 km
500 to 1000 ft
800 to 1500m
200 to 500 ft
< 800m
< 200 ft
Symbols :   Thunderstorms  Fog  Heavy snow  Heavy precipitations  Wind > 20 kt






- Airport Elevation : 3 ft
- IATA code : EYW


KEYW - Key West International

CURRENT METAR :
  • 232353Z 06004KT 10SM CLR 27/23 A2994 RMK AO2 SLP139 60000 T02670233 10283 20267 53006

EXPIRED METARs :
  • 232253Z 09004KT 10SM FEW035 27/24 A2994 RMK AO2 SLP136 T02670239
  • 232153Z 08004KT 10SM SCT039 BKN080 28/23 A2992 RMK AO2 SLP132 T02780233

TAF KEYW
Valid from the 24 at 00:00 until the 25 at 00:00 UTC


232323Z 2400/2424 06004KT P6SM FEW020 BKN150
KZMA FIR / North America



MET'MAP, your aeronautical weather chart ! - Copyright ORBIFLY December 2007 - Disclaimer

ORBIFLY MET'MAP TEAM :

Programming & Development : Alexandra Zaïnal
Concept & original design : Baudouin d'Aumeries
Assistance for programming : Marc-Olivier Méhu
Technical & hardware support : Manuel Goepfert

Contact : metmap@orbifly.com




SOURCES & CREDITS :

   NOAA       Earth
Advisory